Location: Asheville, NC
(35.6000°N, 82.5500°W)
Time: 19:52:50
(UTC-04:00)

Vanguard 1 Rocket - Pass Details

Date: 08 March 2018
Orbit: 653 x 4224 km, 34.3° (Epoch: 19 June)

Event Time Altitude Azimuth Distance (km) Brightness Sun altitude
Rises 21:16:17 0° 264° (W) 4,871 12.0 -33.7°
Reaches altitude 10° 21:18:49 10° 264° (W) 4,210 11.4 -34.2°
Maximum altitude 21:31:20 86° 178° (S) 2,877 9.6 -36.5°
Enters shadow 21:37:10 57° 95° (E) 3,666 9.9 -37.6°
